ONEWEB-0008 (44059 NORAD) Tracking and Keplerian Element Data

This shows tracking and keplerian element data for the satellite.

Feedback or suggestion? Click here.




ElementValue
Catalog44059
NameONEWEB-0008
Epoch Orbit8003
Epoch Day298.25001157
Epoch Year2020
RAAN308.6483
Inclination87.9134
Eccentricity0.0001849
Argument of Perigee92.8868
Mean Anonmoly246.8172
Mean Motion13.21819476
Decay Rate-0.00022996
L11 44059U 19010C 20298.25001157 -.00022996 00000-0 -55859-1 0 9998
L22 44059 87.9134 308.6483 0001849 92.8868 246.8172 13.21819476 80034

Live tracking and technical data element details for ONEWEB-0008 (NORAD 44059). ONEWEB-0008 can be tracked NOW for your location showing map with azimuth and elevation plus other details from your city location.

Track the satellite on the map from your city or location and see movement details for azimuth, elevation, latitude, longitude, range, height, and movement on the map or in text.







IsCatalogInMostPopularTable: catalog: 44059, numindb: 339
Update: records affected: 1



GetName: 44059 ONEWEB-0008

Hit Count: updated at: Sat, 24 Oct 2020 23:51:34 GMT